HS3MXC-1 Weather Reports


time (UTC)temp
F
wind
direction
speed
knots
gust
knots
rain 1hr
in
rain 24hr
in
rain mn
in
humidity
%
barometer
mb
20260504151148 87 0 0.0 0.0 0.00 0.00 0.00 64 997.8
20260504150641 87 0 0.0 0.0 0.00 0.00 0.00 64 997.8
20260504150135 87 0 0.0 0.0 0.00 0.00 0.00 63 997.7
20260504141009 88 0 0.0 0.0 0.00 0.00 0.00 62 997.0
20260504140500 88 0 0.0 0.0 0.00 0.00 0.00 62 996.9
20260504130324 88 0 0.0 0.0 0.00 0.00 0.00 60 996.5
20260504120152 91 0 0.0 0.0 0.00 0.00 0.00 59 998.0
20260504110535 92 0 0.0 0.0 0.00 0.00 0.00 58 996.7
20260504100412 93 0 0.0 0.0 0.00 0.00 0.00 58 993.8
20260504081647 93 0 0.0 0.0 0.00 0.00 0.00 56 994.1
20260504081140 94 0 0.0 0.0 0.00 0.00 0.00 56 994.3
20260504080633 94 0 0.0 0.0 0.00 0.00 0.00 55 994.3
20260504080126 94 0 0.0 0.0 0.00 0.00 0.00 56 994.3
20260504050732 90 0 0.0 0.0 0.00 0.00 0.00 60 998.1
20260504050225 90 0 0.0 0.0 0.00 0.00 0.00 60 998.1
20260504045719 90 0 0.0 0.0 0.00 0.00 0.00 61 998.2
20260504045213 90 0 0.0 0.0 0.00 0.00 0.00 61 998.3
20260504044705 90 0 0.0 0.0 0.00 0.00 0.00 62 998.3
20260504044159 90 0 0.0 0.0 0.00 0.00 0.00 60 998.5
20260504043146 89 0 0.0 0.0 0.00 0.00 0.00 62 998.5
20260504042133 89 0 0.0 0.0 0.00 0.00 0.00 62 998.6
20260504041625 89 0 0.0 0.0 0.00 0.00 0.00 62 998.6
20260504041119 89 0 0.0 0.0 0.00 0.00 0.00 62 998.6
20260504040105 88 0 0.0 0.0 0.00 0.00 0.00 63 998.7
20260504035559 88 0 0.0 0.0 0.00 0.00 0.00 63 998.8
20260504035052 88 0 0.0 0.0 0.00 0.00 0.00 63 998.8
20260504034545 88 0 0.0 0.0 0.00 0.00 0.00 63 998.8
20260504034038 88 0 0.0 0.0 0.00 0.00 0.00 63 998.9
20260504033532 88 0 0.0 0.0 0.00 0.00 0.00 63 999.0
20260504033025 88 0 0.0 0.0 0.00 0.00 0.00 62 999.2
20260504032012 88 0 0.0 0.0 0.00 0.00 0.00 62 999.4
20260504031505 88 0 0.0 0.0 0.00 0.00 0.00 63 999.5
20260504030452 87 0 0.0 0.0 0.00 0.00 0.00 63 999.7
20260504025946 87 0 0.0 0.0 0.00 0.00 0.00 63 999.8
20260504025439 87 0 0.0 0.0 0.00 0.00 0.00 63 999.9
20260504024933 87 0 0.0 0.0 0.00 0.00 0.00 63 999.9
20260504024427 87 0 0.0 0.0 0.00 0.00 0.00 63 1000.0
20260504023919 87 0 0.0 0.0 0.00 0.00 0.00 63 1000.0
20260504023412 87 0 0.0 0.0 0.00 0.00 0.00 63 1000.1
20260504022906 87 0 0.0 0.0 0.00 0.00 0.00 63 1000.1
20260504022359 86 0 0.0 0.0 0.00 0.00 0.00 63 1000.2
20260504021853 86 0 0.0 0.0 0.00 0.00 0.00 63 1000.2
20260504021346 86 0 0.0 0.0 0.00 0.00 0.00 63 1000.1
20260504020840 86 0 0.0 0.0 0.00 0.00 0.00 63 1000.1
20260504015826 86 0 0.0 0.0 0.00 0.00 0.00 63 1000.0
20260504015320 86 0 0.0 0.0 0.00 0.00 0.00 63 999.9
20260504014813 86 0 0.0 0.0 0.00 0.00 0.00 63 999.8
20260504014307 86 0 0.0 0.0 0.00 0.00 0.00 63 999.8
20260504013801 86 0 0.0 0.0 0.00 0.00 0.00 63 999.6
20260504013253 86 0 0.0 0.0 0.00 0.00 0.00 63 999.5
20260504012746 86 0 0.0 0.0 0.00 0.00 0.00 63 999.5
20260504012240 86 0 0.0 0.0 0.00 0.00 0.00 63 999.5
20260504011733 86 0 0.0 0.0 0.00 0.00 0.00 63 999.5
20260504011227 86 0 0.0 0.0 0.00 0.00 0.00 64 999.3
20260504010721 86 0 0.0 0.0 0.00 0.00 0.00 65 999.2
20260504010214 86 0 0.0 0.0 0.00 0.00 0.00 65 999.2
20260504005709 86 0 0.0 0.0 0.00 0.00 0.00 64 999.0
20260504005202 86 0 0.0 0.0 0.00 0.00 0.00 64 999.0
20260504004148 87 0 0.0 0.0 0.00 0.00 0.00 64 998.7
20260504003642 87 0 0.0 0.0 0.00 0.00 0.00 64 998.7
20260504003135 87 0 0.0 0.0 0.00 0.00 0.00 64 998.7
20260504002630 87 0 0.0 0.0 0.00 0.00 0.00 64 998.6
20260504001616 87 0 0.0 0.0 0.00 0.00 0.00 64 998.3
20260504000559 87 0 0.0 0.0 0.00 0.00 0.00 64 998.2
20260504000052 87 0 0.0 0.0 0.00 0.00 0.00 64 998.1
20260503235546 87 0 0.0 0.0 0.00 0.00 0.00 65 998.0
20260503235039 87 0 0.0 0.0 0.00 0.00 0.00 65 997.9
20260503234532 87 0 0.0 0.0 0.00 0.00 0.00 64 997.9
20260503233515 87 0 0.0 0.0 0.00 0.00 0.00 64 997.8
20260503233009 87 0 0.0 0.0 0.00 0.00 0.00 64 997.6
20260503232502 87 0 0.0 0.0 0.00 0.00 0.00 65 997.5
20260503231956 87 0 0.0 0.0 0.00 0.00 0.00 65 997.6
20260503230944 87 0 0.0 0.0 0.00 0.00 0.00 64 997.5
20260503230438 87 0 0.0 0.0 0.00 0.00 0.00 64 997.4
20260503225930 87 0 0.0 0.0 0.00 0.00 0.00 64 997.4
20260503225423 87 0 0.0 0.0 0.00 0.00 0.00 64 997.4
20260503224917 87 0 0.0 0.0 0.00 0.00 0.00 64 997.3
20260503224411 87 0 0.0 0.0 0.00 0.00 0.00 64 997.2
20260503223904 87 0 0.0 0.0 0.00 0.00 0.00 64 997.1
20260503223358 87 0 0.0 0.0 0.00 0.00 0.00 64 997.1
20260503222851 87 0 0.0 0.0 0.00 0.00 0.00 65 996.9
20260503221838 87 0 0.0 0.0 0.00 0.00 0.00 65 997.0
20260503221332 87 0 0.0 0.0 0.00 0.00 0.00 64 996.9
20260503220319 87 0 0.0 0.0 0.00 0.00 0.00 64 996.9
20260503215813 87 0 0.0 0.0 0.00 0.00 0.00 64 996.9
20260503215307 87 0 0.0 0.0 0.00 0.00 0.00 64 996.9
20260503214800 87 0 0.0 0.0 0.00 0.00 0.00 64 996.8
20260503214253 87 0 0.0 0.0 0.00 0.00 0.00 64 996.8
20260503213747 87 0 0.0 0.0 0.00 0.00 0.00 64 996.7
20260503213241 87 0 0.0 0.0 0.00 0.00 0.00 64 996.7
20260503212227 88 0 0.0 0.0 0.00 0.00 0.00 64 996.6
20260503211722 87 0 0.0 0.0 0.00 0.00 0.00 64 996.6
20260503211215 88 0 0.0 0.0 0.00 0.00 0.00 64 996.5
20260503210203 88 0 0.0 0.0 0.00 0.00 0.00 64 996.5
20260503205657 88 0 0.0 0.0 0.00 0.00 0.00 64 996.4
20260503205150 88 0 0.0 0.0 0.00 0.00 0.00 63 996.3
20260503204644 88 0 0.0 0.0 0.00 0.00 0.00 64 996.3
20260503204137 88 0 0.0 0.0 0.00 0.00 0.00 63 996.3
20260503203631 88 0 0.0 0.0 0.00 0.00 0.00 63 996.3
20260503203124 88 0 0.0 0.0 0.00 0.00 0.00 64 996.3
20260503202617 88 0 0.0 0.0 0.00 0.00 0.00 63 996.3
20260503202111 88 0 0.0 0.0 0.00 0.00 0.00 63 996.3
20260503201604 88 0 0.0 0.0 0.00 0.00 0.00 63 996.3
20260503201058 88 0 0.0 0.0 0.00 0.00 0.00 63 996.4
20260503200552 88 0 0.0 0.0 0.00 0.00 0.00 63 996.4
20260503200045 88 0 0.0 0.0 0.00 0.00 0.00 63 996.4
20260503195538 88 0 0.0 0.0 0.00 0.00 0.00 64 996.3
20260503195031 88 0 0.0 0.0 0.00 0.00 0.00 63 996.4
20260503194525 88 0 0.0 0.0 0.00 0.00 0.00 63 996.4
20260503194018 88 0 0.0 0.0 0.00 0.00 0.00 64 996.4
20260503193512 88 0 0.0 0.0 0.00 0.00 0.00 64 996.4
20260503193005 88 0 0.0 0.0 0.00 0.00 0.00 64 996.4
20260503192458 88 0 0.0 0.0 0.00 0.00 0.00 64 996.2
20260503191949 88 0 0.0 0.0 0.00 0.00 0.00 64 996.1
20260503191442 88 0 0.0 0.0 0.00 0.00 0.00 63 996.2
20260503190935 88 0 0.0 0.0 0.00 0.00 0.00 64 996.2
20260503190429 88 0 0.0 0.0 0.00 0.00 0.00 64 996.0
20260503185923 88 0 0.0 0.0 0.00 0.00 0.00 64 995.9
20260503185414 88 0 0.0 0.0 0.00 0.00 0.00 64 995.9
20260503184908 89 0 0.0 0.0 0.00 0.00 0.00 63 996.0
20260503183855 88 0 0.0 0.0 0.00 0.00 0.00 64 995.9
20260503183348 88 0 0.0 0.0 0.00 0.00 0.00 64 996.1
20260503182842 88 0 0.0 0.0 0.00 0.00 0.00 64 996.1
20260503182335 88 0 0.0 0.0 0.00 0.00 0.00 64 996.1
20260503181829 88 0 0.0 0.0 0.00 0.00 0.00 64 996.0
20260503180309 89 0 0.0 0.0 0.00 0.00 0.00 63 996.0
20260503175802 89 0 0.0 0.0 0.00 0.00 0.00 63 996.0
20260503175256 89 0 0.0 0.0 0.00 0.00 0.00 63 995.9
20260503174748 89 0 0.0 0.0 0.00 0.00 0.00 63 996.1
20260503174241 89 0 0.0 0.0 0.00 0.00 0.00 63 996.2
20260503173228 89 0 0.0 0.0 0.00 0.00 0.00 63 996.5
20260503172718 89 0 0.0 0.0 0.00 0.00 0.00 63 996.5
20260503172210 89 0 0.0 0.0 0.00 0.00 0.00 63 996.7
20260503170649 89 0 0.0 0.0 0.00 0.00 0.00 62 996.5
20260503170143 89 0 0.0 0.0 0.00 0.00 0.00 62 996.5